Weather History for Cortez, CO

Change the Weather History Date:

Monday, September 23, 2013

  Actual Average Record
Temperature  
Mean Temperature 53 °F 57 °F  
Max Temperature 67 °F 75 °F 86 °F (2012)
Min Temperature 38 °F 40 °F 28 °F (2006)
Degree Days  
Heating Degree Days 12 8  
Month to date heating degree days 35 97  
Since 1 July heating degree days 35 109  
Cooling Degree Days 0 0  
Month to date cooling degree days 62 16  
Year to date cooling degree days 667 425  
Growing Degree Days 2 (Base 50)    
Moisture  
Dew Point 38 °F    
Average Humidity 63    
Maximum Humidity 92    
Minimum Humidity 34    
Precipitation  
Precipitation 0.00 in 0.07 in 1.14 in (2007)
Month to date precipitation 3.10 1.40  
Year to date precipitation 11.22 9.84  
Sea Level Pressure  
Sea Level Pressure 29.96 in    
Wind  
Wind Speed 8 mph (NNE)    
Max Wind Speed 18 mph    
Max Gust Speed 25 mph    
Visibility 10 miles    
Events      
T = Trace of Precipitation, MM = Missing Value Source: NWS Daily Summary

Daily Weather History Graph

Daily Weather History Graph

Search for Another Location

Airport:

Trip Planner

Search our weather history database for the weather conditions in past years. The results will help you decide how hot, cold, wet, or windy it might be!

Date:

Astronomy

Sep. 23, 2013 Rise Set
Actual Time 7:03 AM MDT 7:09 PM MDT
Civil Twilight 6:37 AM MDT 7:35 PM MDT
Nautical Twilight 6:07 AM MDT 8:05 PM MDT
Astronomical Twilight 5:36 AM MDT 8:36 PM MDT
Moon 9:50 PM MDT (9/23) 11:19 AM MDT (9/23)
Length of Visible Light 12h 57m
Length of Day
12h 05m
Waning Gibbous, 81% of the Moon is Illuminated
Sep 23
Waning Gibbous
Sep 26
Last Quarter
Oct 4
New
Oct 11
First Quarter
Oct 18
Full

Hourly Weather History & Observations

Time (MDT) Temp. Windchill Dew Point Humidity Pressure Visibility Wind Dir Wind Speed Gust Speed Precip Events Conditions
12:53 AM 41.0 °F 37.1 °F 37.9 °F 89% 29.78 in 10.0 mi East 5.8 mph - N/A   Partly Cloudy
1:53 AM 42.1 °F 40.2 °F 37.9 °F 85% 29.78 in 10.0 mi NE 3.5 mph - N/A   Clear
2:53 AM 39.9 °F 36.7 °F 37.0 °F 89% 29.83 in 10.0 mi NE 4.6 mph - N/A   Clear
3:53 AM 39.9 °F 35.8 °F 37.0 °F 89% 29.85 in 10.0 mi ENE 5.8 mph - N/A   Clear
4:53 AM 39.0 °F 35.7 °F 37.0 °F 93% 29.87 in 10.0 mi NE 4.6 mph - N/A   Clear
5:53 AM 39.0 °F 34.8 °F 36.0 °F 89% 29.89 in 10.0 mi NE 5.8 mph - N/A   Clear
6:53 AM 37.9 °F 34.4 °F 35.1 °F 89% 29.92 in 10.0 mi ENE 4.6 mph - N/A   Clear
7:53 AM 41.0 °F 37.1 °F 37.9 °F 89% 29.95 in 10.0 mi ENE 5.8 mph - N/A   Clear
8:53 AM 48.0 °F - 39.9 °F 74% 29.95 in 10.0 mi ENE 3.5 mph - N/A   Clear
9:53 AM 54.0 °F - 39.9 °F 59% 29.95 in 10.0 mi Calm Calm - N/A   Clear
10:53 AM 60.1 °F - 39.0 °F 46% 29.95 in 10.0 mi North 12.7 mph 23.0 mph N/A   Clear
11:53 AM 61.0 °F - 37.9 °F 42% 29.96 in 10.0 mi NW 16.1 mph 23.0 mph N/A   Clear
12:53 PM 63.0 °F - 39.0 °F 41% 29.97 in 10.0 mi NW 12.7 mph 20.7 mph N/A   Clear
1:53 PM 64.0 °F - 37.9 °F 38% 29.96 in 10.0 mi NW 16.1 mph 24.2 mph N/A   Clear
2:53 PM 64.9 °F - 37.0 °F 36% 29.96 in 10.0 mi NW 13.8 mph 21.9 mph N/A   Clear
3:53 PM 66.0 °F - 37.0 °F 34% 29.96 in 10.0 mi North 11.5 mph 21.9 mph N/A   Clear
4:53 PM 66.9 °F - 37.9 °F 34% 29.98 in 10.0 mi NW 13.8 mph 19.6 mph N/A   Clear
5:53 PM 64.9 °F - 37.0 °F 36% 30.00 in 10.0 mi NNW 8.1 mph 18.4 mph N/A   Clear
6:53 PM 62.1 °F - 37.0 °F 39% 30.03 in 10.0 mi NNW 8.1 mph - N/A   Clear
7:53 PM 55.9 °F - 39.0 °F 53% 30.06 in 10.0 mi North 5.8 mph - N/A   Clear
8:53 PM 51.1 °F - 39.9 °F 66% 30.09 in 10.0 mi East 3.5 mph - N/A   Clear
9:53 PM 48.0 °F - 41.0 °F 77% 30.09 in 10.0 mi East 4.6 mph - N/A   Clear
10:53 PM 45.0 °F 42.6 °F 39.9 °F 82% 30.09 in 10.0 mi NE 4.6 mph - N/A   Clear
11:53 PM 43.0 °F 38.8 °F 37.9 °F 82% 30.10 in 10.0 mi ENE 6.9 mph - N/A   Clear